CW7054 Weather Reports


Display with metric or nautical units.
time (UTC)temp
F
wind
direction
speed
MPH
gust
MPH
rain 1hr
in
rain 24hr
in
rain mn
in
humidity
%
barometer
mb
20210616083017 61 346 0.0 4.0 0.00 0.00 0.00 86 1006.2
20210616081630 62 252 0.0 3.0 0.00 0.00 0.00 87 1006.1
20210616080023 62 132 0.0 1.0 0.00 0.00 0.00 86 1006.1
20210616074517 62 132 0.0 3.0 0.00 0.00 0.00 86 1006.2
20210616073012 63 56 0.0 1.0 0.00 0.00 0.00 86 1006.2
20210616071514 63 57 0.0 2.0 0.00 0.00 0.00 86 1006.1
20210616070023 63 51 0.0 2.0 0.00 0.00 0.00 85 1006.0
20210616064505 63 36 0.0 3.0 0.00 0.00 0.00 85 1006.2
20210616063002 64 9 0.0 4.0 0.00 0.00 0.00 84 1006.3
20210616060128 64 28 0.0 8.0 0.00 0.00 0.00 84 1006.4
20210616054727 64 28 0.0 3.0 0.00 0.00 0.00 83 1006.5
20210616053246 65 56 0.0 4.0 0.00 0.00 0.00 83 1006.6
20210616051619 65 142 0.0 5.0 0.00 0.00 0.00 83 1006.9
20210616050121 65 65 0.0 4.0 0.00 0.00 0.00 83 1006.8
20210616044635 65 265 0.0 4.0 0.00 0.00 0.00 84 1006.8
20210616043119 66 219 0.0 4.0 0.00 0.00 0.00 84 1006.9
20210616041612 66 116 0.0 2.0 0.00 0.00 0.00 84 1006.9
20210616040325 66 163 0.0 3.0 0.00 0.00 0.00 83 1006.9
20210616034731 66 150 0.0 1.0 0.00 0.00 0.00 83 1006.7
20210616033130 66 149 0.0 2.0 0.00 0.00 0.00 82 1006.5
20210616031548 65 153 0.0 2.0 0.00 0.00 0.00 83 1006.5
20210616030123 65 178 0.0 1.0 0.00 0.00 0.00 82 1006.5
20210616024620 65 180 0.0 2.0 0.00 0.00 0.00 84 1006.4
20210616023211 65 182 0.0 1.0 0.00 0.00 0.00 85 1006.5
20210616021608 66 196 0.0 1.0 0.00 0.00 0.00 87 1006.6
20210616020101 67 196 0.0 0.0 0.00 0.00 0.00 89 1006.6
20210616014634 67 196 0.0 0.0 0.00 0.00 0.00 88 1006.5
20210616013123 68 196 0.0 0.0 0.00 0.00 0.00 88 1006.5
20210616011609 68 196 0.0 0.0 0.00 0.00 0.00 88 1006.5
20210616010059 69 196 0.0 2.0 0.00 0.00 0.00 87 1006.3
20210616004543 69 196 0.0 1.0 0.00 0.00 0.00 87 1006.1
20210616003113 70 196 0.0 4.0 0.00 0.00 0.00 86 1006.1
20210616001620 70 194 0.0 3.0 0.00 0.00 0.00 83 1006.0
20210616000107 71 198 0.0 3.0 0.00 0.00 0.00 81 1005.8
20210615234613 72 187 0.0 3.0 0.00 0.00 0.00 77 1005.8
20210615233101 73 186 0.0 5.0 0.00 0.00 0.00 76 1005.7
20210615231547 72 177 0.0 4.0 0.00 0.00 0.00 79 1005.5
20210615230038 72 174 0.0 3.0 0.00 0.00 0.00 82 1005.4
20210615224602 72 163 0.0 3.0 0.00 0.00 0.00 83 1005.3
20210615223149 72 190 0.0 3.0 0.00 0.00 0.00 83 1005.4
20210615221626 73 179 0.0 5.0 0.00 0.00 0.00 81 1005.4
20210615220110 73 174 1.0 6.0 0.00 0.00 0.00 82 1005.6
20210615214607 72 194 0.0 8.0 0.00 0.00 0.00 82 1005.6
20210615213055 72 185 0.0 6.0 0.00 0.00 0.00 81 1005.6
20210615211538 72 175 1.0 6.0 0.00 0.00 0.00 82 1005.7
20210615210042 72 187 2.0 9.0 0.00 0.00 0.00 80 1005.8
20210615204531 73 174 1.0 8.0 0.00 0.00 0.00 80 1005.8
20210615203039 73 181 3.0 10.0 0.00 0.00 0.00 79 1005.8
20210615201540 73 186 2.0 8.0 0.00 0.00 0.00 79 1005.9
20210615200047 73 178 2.0 10.0 0.00 0.00 0.00 80 1005.9
20210615194522 74 196 1.0 7.0 0.00 0.00 0.00 78 1006.0
20210615193056 75 249 2.0 9.0 0.00 0.00 0.00 77 1006.1
20210615191526 75 196 0.0 10.0 0.00 0.00 0.00 79 1006.0
20210615190054 74 188 2.0 10.0 0.00 0.00 0.00 79 1006.1
20210615184544 74 186 2.0 10.0 0.00 0.00 0.00 81 1006.2
20210615183024 73 178 1.0 8.0 0.00 0.00 0.00 82 1006.3
20210615181542 72 182 0.0 7.0 0.00 0.00 0.00 86 1006.5
20210615180025 71 180 1.0 8.0 0.00 0.00 0.00 84 1006.7
20210615174512 73 175 2.0 7.0 0.00 0.00 0.00 83 1006.9
20210615173009 74 205 0.0 5.0 0.00 0.00 0.00 81 1006.9
20210615171510 74 259 1.0 5.0 0.00 0.00 0.00 84 1006.9
20210615170008 73 188 0.0 3.0 0.00 0.00 0.00 84 1006.9
20210615164502 72 172 1.0 3.0 0.00 0.00 0.00 86 1006.9
20210615163215 71 193 0.0 6.0 0.00 0.00 0.00 87 1007.0
20210615161647 72 179 1.0 7.0 0.00 0.00 0.00 86 1007.2
20210615160247 72 233 1.0 6.0 0.00 0.00 0.00 87 1007.1
20210615154657 71 182 0.0 3.0 0.00 0.00 0.00 90 1007.1
20210615153155 70 186 0.0 3.0 0.00 0.00 0.00 91 1007.2
20210615151627 70 225 0.0 4.0 0.00 0.00 0.00 90 1007.3
20210615150112 70 187 1.0 4.0 0.00 0.00 0.00 91 1007.4
20210615144656 70 186 0.0 4.0 0.00 0.00 0.00 91 1007.3
20210615143152 69 202 0.0 3.0 0.00 0.00 0.00 92 1007.3
20210615141622 69 178 0.0 5.0 0.00 0.00 0.00 93 1007.2
20210615140118 68 215 0.0 3.0 0.00 0.00 0.00 94 1007.3
20210615134627 68 225 0.0 1.0 0.00 0.00 0.00 95 1007.2
20210615133109 68 227 0.0 3.0 0.00 0.00 0.00 95 1007.0
20210615131554 67 231 0.0 2.0 0.00 0.00 0.00 96 1007.2
20210615130051 67 232 0.0 2.0 0.00 0.00 0.00 96 1007.1
20210615124603 67 233 0.0 0.0 0.00 0.00 0.00 96 1007.2
20210615123059 68 233 0.0 3.0 0.00 0.00 0.00 97 1007.3
20210615121643 67 72 0.0 2.0 0.00 0.00 0.00 98 1007.2
20210615120104 67 55 0.0 2.0 0.00 0.00 0.00 97 1007.0
20210615114604 67 55 0.0 4.0 0.00 0.00 0.00 97 1006.9
20210615113035 67 37 0.0 2.0 0.00 0.00 0.00 97 1006.4
20210615111544 66 36 0.0 2.0 0.00 0.00 0.00 97 1006.9
20210615110049 66 25 0.0 3.0 0.00 0.00 0.00 97 1007.0
20210615104539 66 355 0.0 1.0 0.00 0.00 0.00 97 1006.8
20210615103037 65 355 0.0 1.0 0.00 0.00 0.00 97 1006.6
20210615100125 65 242 0.0 1.0 0.00 0.00 0.00 97 1006.5
20210615094548 65 240 0.0 1.0 0.00 0.00 0.00 97 1006.5
20210615093031 65 236 1.0 5.0 0.00 0.00 0.00 96 1006.9
20210615091534 65 227 0.0 8.0 0.00 0.00 0.00 96 1007.1
20210615090035 65 227 0.0 4.0 0.00 0.00 0.00 97 1007.1
20210615084556 65 156 1.0 3.0 0.00 0.00 0.00 96 1007.3